Вернуться в каталог

SL-23 R/B

АктивенHEO
NORAD 35363·ROCKET BODY·🇷🇺 Russia

Запущен Jun 21, 2009 с Baikonur Cosmodrome

Loading…

Ближайшие Пролёты (ближайшие 24 часа)

TLE

УстаревающийSource: Space-Track

Эпоха: Aug 31, 2026, 06:44 UTC

1 35363U 09032B   26243.28058698 -.00000040  00000-0  00000+0 0  9991
2 35363   8.0684 171.2651 4111974 112.7666  14.4849  1.68695150105891

Отслеживайте SL-23 R/B в реальном времени с AllMySat

Download on the App Store